EUTELSAT 70B

Last updated on Sun Jun 21 2026 00:03:05 GMT+0000 (Coordinated Universal Time)

1 39020U 12069A 26171.40597869 -.00000048 00000+0 00000+0 0 9998 2 39020 0.0680 22.0297 0003863 59.0398 44.1885 1.00271913 49542
UTC large
Height (km)
Speed (km/s)
/
Latitude / Longitude
Inclination (degrees)
Orbital Period (minutes)
Azimuth
Elevation
Range (km)
Doppler Factor

Next 0 passes for location: London (51.5072 / 0.1276)

No passes found over London.
EUTELSAT 70B